sat.trackr.live / text

‹ back to catalog

NSS-12

NORAD 36032 · 2009-058A

PAYLOAD ACTIVE UNKNOWN

§ Identity

Operator
Country
SES
Launch date
2009-10-29
Launch site
FRGUI
Launch vehicle
Mass (kg)
RCS (m²)
7.94

Purposes: comms

External: N2YO · Heavens-Above · Gunter

§ Orbital elements

Epoch: 2026-05-25T04:12:38.752128Z

Period
1,436.07 min
Inclination
0.0720°
Eccentricity
0.0005079
Mean motion
1.00273406 rev/d
Perigee alt
35,764.7 km
Apogee alt
35,807.6 km
Semi-major
42,164.3 km
B*
0.0000e+0
RAAN
66.4798°
Arg perigee
327.0470°
Mean anomaly
329.4072°
Rev number
6,068

§ Raw data

NSS-121 36032U 09058A   26145.17544852  .00000069  00000+0  00000+0 0  99932 36032   0.0720  66.4798 0005079 327.0470 329.4072  1.00273406 60689

JSON: /api/v1/satellites/36032 · /tle

For live sub-satellite position, see the globe view (requires WebGL).

§ Visibility from observer

Set your observer location to see the next 7 days of passes ≥ 10°. The values pass through the URL so the page stays shareable.

No JS? Fill the form by hand. The geolocation button needs JavaScript.